Wind_Speed
20 14 8 10 15 20 23 21 21 19 19 18 19 19 19 19 18 17 17 17 18 19 20 20 21 21 22 22 22 23 24 22 24 24 25 17 18 17 13 16 15 13 14
20 17 9 11 14 18 19 19 18 17 19 18 19 18 16 17 15 17 18 20 21 23 24 25 26 26 26 26 26 26 26 27 27 25 24 15 12 14 8 11 18 19 15
23 19 13 11 14 17 19 21 20 20 21 21 21 19 19 18 18 19 20 21 22 24 25 27 28 28 29 28 28 28 27 28 27 24 20 9 12 10 12 13 14 13 14
21 20 18 12 14 16 18 19 21 22 23 24 24 23 22 21 21 21 21 21 22 23 24 25 25 25 26 26 26 25 25 25 26 26 24 21 19 11 8 9 10 14 16
22 25 25 18 13 18 19 18 18 19 19 20 18 17 17 18 20 21 22 22 23 24 24 24 25 25 25 25 25 24 25 26 27 26 23 21 19 17 16 9 10 11 11
20 20 20 23 20 20 20 21 20 18 18 17 16 17 17 18 19 20 21 21 21 21 21 21 21 21 22 22 22 22 22 22 23 22 23 23 17 14 13 16 20 17 17
22 23 24 23 23 24 25 25 22 21 19 17 17 16 17 18 20 20 21 21 21 22 22 22 23 23 23 23 22 21 21 21 21 19 24 23 21 19 16 17 18 14 14
17 29 37 39 28 28 28 26 23 21 18 17 16 16 17 18 18 18 19 21 22 22 21 20 20 20 19 18 17 16 16 16 16 18 20 19 19 18 18 15 11 10 11
13 17 25 34 32 29 29 25 23 20 17 16 15 16 16 16 17 18 19 20 21 20 19 18 17 16 15 15 14 13 12 13 14 15 16 17 19 18 20 15 14 14 9
10 15 20 22 29 29 27 24 21 18 15 15 15 16 17 18 19 20 20 21 20 19 18 16 15 14 14 14 14 14 14 15 16 18 19 20 19 18 16 14 13 13 13
5 9 13 18 25 26 24 22 18 16 15 15 16 17 18 20 20 20 21 21 20 19 18 16 15 14 13 13 13 14 13 14 14 14 14 14 14 13 13 13 14 16 14
3 7 12 20 23 23 22 19 17 16 16 15 16 18 20 21 21 21 20 20 19 19 18 17 16 15 15 14 14 14 13 13 12 12 12 13 13 13 13 14 14 13 12
6 11 16 20 22 22 20 19 17 17 17 17 19 20 21 21 20 19 18 18 17 17 18 18 17 16 15 14 13 12 12 12 11 11 11 11 11 11 12 12 11 10 9
11 15 19 21 22 23 22 21 20 19 19 19 21 21 20 18 16 14 13 13 15 16 15 15 16 15 14 12 11 10 11 11 10 10 9 9 8 8 9 8 7 8 7
15 18 20 22 24 25 24 23 22 21 20 20 20 19 17 14 12 10 10 12 12 11 10 10 11 10 11 10 9 8 8 8 7 7 6 7 7 8 9 8 7 7 7
19 21 22 24 27 27 27 25 23 21 20 20 19 16 14 12 10 10 10 9 10 9 9 10 10 10 9 9 8 6 5 6 5 4 5 6 7 8 8 7 7 8 8
19 19 22 26 29 29 27 25 22 22 21 19 17 14 12 11 11 10 10 9 8 9 9 10 10 8 7 6 6 6 5 4 3 4 5 7 8 7 8 8 9 9 8
18 21 22 24 28 30 26 24 24 21 20 18 15 14 14 14 12 12 12 10 10 10 10 10 8 8 7 6 4 4 4 4 5 5 6 6 7 7 7 8 9 9 9
22 20 22 21 25 27 25 24 22 20 19 17 15 14 15 16 15 14 13 11 11 11 10 10 10 9 7 5 4 5 4 3 4 4 5 6 7 7 7 8 8 9 9
17 20 18 17 21 23 24 22 20 19 18 16 15 15 15 16 15 14 12 12 12 11 13 12 11 8 6 5 5 4 2 2 3 4 6 6 7 9 8 7 6 7 8
13 16 14 17 20 21 21 20 19 18 15 16 15 16 16 16 15 14 14 14 14 14 14 13 10 8 7 7 5 2 2 3 4 5 6 8 9 9 9 6 7 7 8
10 14 15 18 19 20 19 18 17 15 15 15 14 15 15 16 16 15 15 15 16 16 14 12 10 9 8 6 4 3 3 4 5 5 7 8 8 8 8 7 9 8 6
6 9 14 17 18 18 17 16 14 14 13 14 14 14 16 16 17 17 17 18 18 17 15 13 12 10 9 7 6 6 5 4 5 6 8 8 7 8 8 9 8 8 7
7 9 13 15 15 15 15 14 13 12 14 14 14 14 16 18 19 19 19 19 18 17 16 15 13 11 10 9 9 8 8 8 7 8 8 8 7 8 9 9 9 9 9
11 10 10 9 8 11 13 14 11 11 10 13 14 15 16 18 19 19 20 19 18 17 16 14 14 14 12 11 10 9 9 9 9 9 9 8 9 9 9 10 10 10 11
10 11 10 7 10 17 14 17 15 13 14 14 15 15 16 18 19 20 21 21 21 20 18 17 16 15 14 13 11 11 10 10 10 10 9 9 10 11 11 11 12 12 12
Wind_Direction
241 264 262 219 218 219 224 225 228 226 223 221 225 230 233 238 242 245 248 249 253 257 260 262 267 270 270 271 271 274 276 276 281 285 288 290 288 284 281 294 294 305 297
234 245 279 224 220 218 218 218 220 219 221 224 226 231 235 239 244 251 254 254 256 260 264 269 273 274 274 273 273 274 275 277 281 282 288 296 288 285 284 281 284 292 290
225 234 254 253 226 223 219 222 224 224 226 230 234 238 244 250 254 259 262 263 264 266 268 270 271 272 272 272 272 274 276 278 278 277 270 278 276 278 280 293 296 285 284
226 226 240 260 237 230 226 224 226 230 233 235 237 241 247 253 258 260 263 265 266 268 269 270 269 269 270 271 273 274 272 271 269 273 272 267 264 265 276 287 284 293 285
232 228 238 243 260 246 234 230 228 227 227 226 228 235 242 249 256 260 264 267 269 271 270 269 269 269 271 273 274 273 271 269 268 267 266 264 266 260 255 273 278 289 287
239 237 239 243 258 248 239 233 225 222 223 228 235 242 248 253 258 263 266 269 270 269 269 269 269 270 271 271 271 270 269 269 267 260 257 262 260 260 259 274 285 288 292
238 239 238 244 238 237 230 224 220 221 224 230 237 245 252 258 262 266 268 270 269 268 269 270 270 270 271 271 271 270 266 261 263 256 252 255 255 255 264 276 281 280 287
238 234 234 244 239 228 222 218 217 220 224 233 244 253 259 263 265 267 270 271 271 272 272 270 269 268 267 267 268 268 268 264 256 252 254 252 248 259 276 266 262 281 274
236 236 232 231 233 224 216 212 214 218 226 240 252 257 261 265 269 270 271 271 272 272 272 270 268 266 262 260 258 261 260 249 252 247 245 251 264 270 275 263 261 255 261
261 238 231 219 216 211 209 208 211 219 231 241 248 256 263 269 273 274 272 271 270 269 269 269 266 263 258 255 254 257 260 259 255 255 258 262 265 264 261 256 248 246 243
258 233 209 203 201 202 203 208 216 225 233 242 255 266 274 277 276 273 270 267 265 264 263 262 261 259 256 255 257 259 259 257 258 260 262 262 263 263 264 266 265 265 260
265 198 193 194 196 199 204 210 218 228 238 251 265 274 279 280 277 272 268 265 263 261 260 258 257 256 257 256 256 259 260 256 253 253 256 261 263 266 266 268 271 269 265
215 192 193 195 198 204 211 220 228 240 252 263 273 280 283 281 275 269 264 260 259 261 261 259 255 253 251 250 250 250 251 251 250 252 251 255 258 262 264 263 263 265 257
219 204 200 205 209 214 220 226 232 242 254 267 278 281 282 276 268 260 256 257 262 270 272 259 244 238 238 237 236 239 245 247 246 246 248 253 257 266 270 270 276 273 263
230 220 214 213 219 223 227 232 240 248 259 271 277 278 276 262 249 246 255 262 263 262 252 234 227 219 222 223 226 224 231 236 234 233 238 251 267 277 272 272 273 264 268
247 234 228 225 228 232 233 237 243 253 262 268 269 271 262 243 241 244 242 247 254 242 223 219 209 206 208 207 213 216 214 219 221 226 250 268 277 271 274 275 268 265 271
257 242 244 241 237 235 239 242 246 253 260 264 266 255 242 229 234 230 230 236 236 224 218 204 189 192 195 188 190 190 174 182 220 241 258 265 267 275 281 289 289 286 281
254 253 261 253 241 235 236 237 240 248 254 255 252 244 227 220 223 225 226 232 217 212 201 198 184 180 172 164 179 195 201 222 237 245 249 259 267 276 277 279 283 286 283
256 258 267 248 230 231 232 232 238 244 247 245 241 237 227 218 214 217 221 218 212 210 203 192 179 172 178 172 192 212 213 219 237 256 269 267 278 282 283 287 292 291 291
265 263 263 219 218 227 226 230 237 243 243 239 238 230 222 218 214 217 219 217 211 204 195 187 183 184 184 191 212 212 216 235 263 275 273 281 288 298 303 296 296 293 291
274 255 243 219 220 220 224 230 235 237 235 230 229 219 218 217 215 217 218 215 208 194 191 191 192 192 200 211 223 233 248 279 281 282 290 293 299 302 305 305 291 288 289
263 236 232 218 214 216 222 227 229 228 227 226 222 216 214 213 210 210 209 206 196 195 197 198 204 212 220 227 239 254 272 281 279 288 292 292 295 291 291 291 290 296 287
267 222 210 208 211 215 216 220 221 227 226 223 222 218 214 211 208 207 205 200 200 199 204 211 218 223 231 243 261 278 287 288 290 290 290 286 282 282 283 284 288 288 285
249 220 211 212 216 214 213 217 219 225 229 224 222 219 215 210 209 208 204 204 205 209 214 219 225 232 239 248 255 264 276 287 293 294 288 282 281 283 284 283 282 279 273
242 219 210 209 221 223 218 213 209 222 239 235 228 224 218 214 212 210 210 214 213 217 224 227 232 238 242 247 251 261 272 278 284 282 275 280 287 289 285 280 279 276 271
226 203 206 225 257 241 241 225 215 219 226 230 235 230 226 222 218 218 218 219 218 224 229 231 235 239 241 246 254 262 269 273 275 273 271 279 284 286 283 281 278 276 273
Height
1531 1534 1534 1533 1536 1538 1542 1543 1546 1549 1550 1551 1553 1555 1555 1558 1559 1559 1560 1560 1561 1561 1561 1561 1561 1561 1560 1560 1560 1559 1559 1558 1557 1556 1555 1553 1552 1551 1550 1549 1548 1547 1545
1526 1530 1531 1531 1532 1534 1537 1540 1542 1544 1547 1549 1550 1552 1552 1553 1555 1556 1556 1556 1556 1557 1557 1556 1556 1555 1555 1555 1555 1554 1553 1552 1552 1551 1550 1548 1550 1547 1546 1545 1544 1543 1541
1521 1526 1527 1528 1529 1531 1533 1536 1538 1540 1543 1545 1547 1547 1548 1549 1550 1551 1552 1551 1551 1551 1551 1551 1550 1550 1549 1549 1549 1548 1547 1547 1546 1546 1547 1546 1544 1544 1544 1541 1541 1539 1538
1516 1521 1522 1525 1526 1528 1530 1531 1533 1536 1538 1541 1542 1542 1543 1545 1545 1546 1547 1546 1546 1546 1545 1545 1545 1544 1543 1543 1543 1543 1542 1542 1541 1540 1540 1540 1540 1539 1538 1538 1537 1535 1534
1511 1514 1518 1522 1523 1525 1525 1527 1529 1532 1534 1536 1537 1538 1539 1540 1541 1542 1542 1542 1541 1540 1539 1539 1539 1538 1538 1537 1537 1536 1536 1536 1535 1535 1534 1534 1534 1534 1534 1533 1535 1534 1533
1506 1509 1513 1516 1518 1521 1521 1524 1526 1529 1531 1532 1533 1534 1534 1535 1537 1537 1537 1537 1536 1535 1534 1534 1534 1533 1532 1532 1531 1531 1530 1529 1529 1529 1530 1529 1530 1529 1530 1530 1530 1530 1529
1501 1503 1506 1509 1512 1515 1518 1521 1523 1525 1527 1528 1529 1530 1531 1531 1532 1532 1532 1532 1532 1530 1529 1528 1528 1527 1526 1525 1525 1524 1524 1523 1523 1524 1525 1525 1525 1525 1526 1526 1526 1525 1525
1496 1499 1502 1505 1507 1510 1514 1516 1519 1522 1524 1525 1526 1527 1527 1527 1527 1527 1527 1527 1526 1525 1523 1523 1522 1521 1520 1520 1519 1519 1518 1517 1518 1519 1520 1521 1521 1521 1521 1522 1522 1521 1521
1494 1495 1498 1500 1503 1506 1510 1512 1516 1519 1520 1522 1523 1523 1523 1523 1523 1522 1521 1522 1521 1519 1518 1517 1516 1515 1515 1515 1516 1515 1514 1515 1515 1516 1516 1516 1516 1516 1515 1517 1518 1517 1518
1490 1491 1493 1494 1497 1502 1507 1509 1513 1515 1517 1518 1519 1519 1519 1518 1517 1516 1516 1516 1515 1514 1513 1512 1512 1511 1511 1511 1512 1512 1511 1511 1511 1512 1513 1512 1512 1511 1511 1511 1513 1513 1514
1489 1489 1489 1491 1495 1499 1503 1508 1510 1512 1513 1514 1515 1515 1514 1513 1512 1511 1510 1510 1510 1509 1508 1507 1508 1507 1508 1508 1508 1508 1507 1507 1507 1507 1509 1508 1508 1509 1508 1508 1508 1508 1509
1487 1486 1489 1490 1494 1498 1502 1505 1507 1510 1510 1510 1511 1510 1510 1508 1506 1504 1504 1504 1504 1503 1503 1503 1503 1503 1504 1504 1504 1504 1504 1504 1503 1503 1504 1506 1506 1505 1504 1505 1504 1504 1504
1485 1485 1487 1490 1492 1497 1500 1502 1504 1506 1507 1507 1506 1505 1504 1503 1501 1499 1498 1498 1499 1498 1499 1499 1499 1499 1499 1500 1500 1500 1501 1502 1500 1502 1500 1501 1502 1502 1501 1500 1499 1500 1501
1486 1486 1485 1488 1491 1493 1496 1499 1500 1501 1501 1501 1501 1499 1498 1497 1496 1494 1494 1495 1495 1494 1494 1495 1496 1495 1496 1496 1496 1496 1499 1499 1498 1498 1497 1498 1498 1498 1499 1497 1496 1497 1498
1483 1482 1482 1483 1486 1489 1492 1494 1496 1496 1495 1495 1495 1494 1492 1491 1492 1492 1491 1493 1493 1492 1492 1492 1493 1492 1494 1493 1494 1493 1495 1496 1495 1495 1494 1496 1496 1496 1497 1495 1495 1496 1495
1476 1477 1478 1480 1482 1485 1487 1489 1490 1490 1491 1491 1490 1488 1489 1488 1488 1489 1488 1490 1490 1491 1490 1491 1490 1491 1491 1490 1492 1492 1491 1494 1494 1492 1493 1495 1494 1495 1494 1493 1493 1494 1493
1472 1472 1473 1474 1476 1478 1481 1484 1486 1486 1486 1486 1484 1484 1484 1486 1487 1486 1488 1488 1488 1490 1489 1490 1489 1490 1491 1490 1491 1491 1491 1492 1493 1492 1493 1494 1494 1493 1492 1491 1491 1490 1490
1465 1466 1467 1468 1470 1473 1477 1479 1480 1481 1481 1481 1480 1480 1480 1485 1484 1485 1486 1486 1487 1488 1488 1491 1489 1489 1490 1489 1492 1493 1490 1490 1492 1491 1492 1493 1493 1492 1490 1489 1489 1487 1486
1458 1460 1460 1460 1463 1467 1471 1473 1474 1475 1476 1476 1476 1477 1479 1481 1483 1483 1484 1484 1486 1487 1487 1489 1489 1489 1490 1489 1491 1492 1490 1489 1489 1490 1490 1491 1490 1489 1488 1487 1486 1485 1484
1451 1453 1453 1454 1458 1462 1465 1468 1469 1471 1471 1472 1473 1475 1477 1479 1480 1481 1481 1483 1484 1485 1487 1488 1488 1488 1488 1489 1491 1490 1488 1487 1488 1488 1489 1488 1486 1486 1486 1485 1484 1483 1481
1447 1449 1450 1451 1454 1457 1461 1463 1465 1467 1469 1470 1470 1472 1474 1476 1477 1478 1479 1480 1482 1484 1486 1487 1486 1487 1488 1490 1490 1488 1487 1486 1487 1486 1486 1485 1484 1483 1482 1482 1482 1481 1480
1444 1446 1448 1450 1452 1455 1458 1461 1462 1464 1465 1466 1467 1468 1470 1472 1473 1475 1476 1478 1481 1483 1484 1484 1486 1487 1488 1488 1488 1487 1485 1485 1485 1484 1483 1482 1481 1480 1479 1479 1479 1478 1477
1445 1444 1446 1448 1451 1453 1455 1457 1459 1460 1462 1463 1464 1465 1467 1468 1470 1472 1474 1476 1478 1480 1482 1483 1484 1485 1485 1485 1485 1484 1484 1483 1482 1481 1480 1479 1478 1478 1477 1476 1475 1475 1474
1446 1446 1447 1448 1450 1451 1453 1455 1456 1458 1459 1460 1461 1462 1463 1465 1467 1469 1471 1474 1475 1477 1479 1481 1482 1483 1482 1482 1483 1482 1482 1480 1479 1478 1477 1476 1476 1475 1474 1473 1472 1472 1471
1445 1445 1446 1448 1449 1450 1451 1452 1453 1455 1456 1458 1459 1459 1461 1462 1464 1466 1469 1471 1473 1476 1477 1478 1479 1480 1479 1480 1481 1480 1479 1478 1476 1475 1474 1474 1473 1472 1471 1470 1469 1468 1467
1445 1445 1446 1446 1447 1447 1448 1448 1450 1451 1453 1454 1456 1457 1458 1459 1461 1463 1465 1467 1470 1472 1473 1474 1475 1476 1476 1477 1477 1476 1475 1474 1473 1473 1471 1470 1470 1469 1468 1466 1466 1464 1464